www.pogodaiklimat.ru

Погода и климат >> Архив погоды >> Индия >> Андхра-Прадеш >> Мачилипатнам


ПОГОДА в Мачилипатнаме

  • Прогноз погоды в Мачилипатнаме
  • Монитор погоды в Мачилипатнаме

АРХИВ ПОГОДЫ в Мачилипатнаме

Время (UTC), дата Ветер
(напр.,м/с)
 
Видим.   Явления Облачность Т
(С)
Тd
(С)
f
(%)
Тe
(С)
Тes
(С)
Комфортность P
(гПа)
Po
(гПа)
Тmin
(С)
Tmax
(С)
R
(мм)
R24
(мм)
S
(см)
21 16.01 штиль 0 4000 м мгла 1/1 600 м
[Sc]
+22.0 +20.5 91 +28 +28 душно 1013.7 1013.3
00 17.01 С 1 500 м туман на расстоянии 3/3 600 м
[Sc]
+21.0 +19.4 91 +27 +27 душно 1013.4 1013.0
03 17.01 штиль 0 4000 м дымка {туман} 4/1 600 м
[Sc Ci sp]
+21.6 +21.3 98 +28 +32 очень
душно
1015.6 1015.2 +20.4 +30.1
06 17.01 В 2 4000 м мгла {туман} 3/0
[Ci fib]
+28.0 +21.1 66 +35 +49 очень
душно
1015.1 1014.8
09 17.01 В 1 4000 м мгла ясно +28.6 +20.4 61 +35 +46 очень
душно
1011.8 1011.5
12 17.01 ЮВ 1 4000 м мгла ясно +25.8 +21.6 78 +33 +33 очень
душно
1011.7 1011.3 +29.6
15 17.01 ЮВ 1 4000 м мгла ясно +23.4 +20.6 84 +31 +31 очень
душно
1014.1 1013.7
18 17.01 штиль 0 4000 м мгла ясно +22.2 +20.3 89 +28 +28 душно 1014.4 1014.0
21 17.01 штиль 0 4000 м мгла ясно +21.4 +19.8 91 +26 +26 душно 1013.2 1012.8
00 18.01 штиль 0 4000 м мгла ясно +21.2 +20.3 95 +26 +26 душно 1013.2 1012.8
03 18.01 С 1 500 м туман местами 3/3 600 м
[Sc]
+21.8 +21.2 96 +28 +32 душно 1015.5 1015.1 +21.2 +29.6
06 18.01 штиль 0 4000 м мгла 5/3 600 м
[Sc Ac trans]
+28.2 +19.6 60 +34 +45 очень
душно
1015.0 1014.7
09 18.01 ЮВ 1 4000 м мгла 3/1 600 м
[Sc Ac trans]
+29.2 +18.7 53 +34 +42 очень
душно
1012.5 1012.2
12 18.01 ЮВ 1 4000 м мгла 4/1 600 м
[Sc Ac trans]
+26.6 +19.2 64 +32 +32 очень
душно
1012.8 1012.5 +30.0
15 18.01 В 1 4000 м мгла 4/1 600 м
[Sc Ci fib]
+23.6 +20.5 83 +29 +29 душно 1014.3 1013.9
18 18.01 ЮВ 1 4000 м мгла 3/0
[Ci fib]
+23.0 +21.2 90 +31 +31 очень
душно
1014.3 1013.9
21 18.01 В 1 4000 м мгла 3/0
[Ci fib]
+22.4 +21.5 95 +30 +30 очень
душно
1013.4 1013.0
00 19.01 штиль 0 4000 м мгла 3/0
[Ci fib]
+21.2 +20.3 95 +26 +26 душно 1014.3 1013.9
03 19.01 штиль 0 4000 м дымка 1/1 600 м
[Sc]
+22.4 +21.2 93 +29 +35 очень
душно
1016.5 1016.1 +20.8 +30.0
06 19.01 В 1 4000 м мгла 3/3 600 м
[Sc]
+28.8 +20.0 59 +35 +47 очень
душно
1016.8 1016.5
09 19.01 В 1 4000 м мгла 3/3 600 м
[Sc]
+29.2 +20.4 59 +36 +43 очень
душно
1013.8 1013.5
12 19.01 В 2 4000 м мгла 3/3 600 м
[Sc]
+26.0 +20.2 70 +32 +32 очень
душно
1013.7 1013.3 +30.0
15 19.01 В 1 4000 м мгла 3/0
[Ci fib]
+23.4 +20.6 84 +31 +31 очень
душно
1015.3 1014.9
18 19.01 В 1 4000 м мгла 3/0
[Ci fib]
+22.4 +20.6 90 +29 +29 очень
душно
1016.0 1015.6
21 19.01 штиль 0 4000 м мгла 3/0
[Ci fib]
+21.8 +20.9 95 +28 +28 душно 1015.3 1014.9
00 20.01 штиль 0 4000 м мгла 4/1 600 м
[Sc Ci fib]
+21.0 +20.1 95 +26 +26 душно 1015.3 1014.9
03 20.01 С 1 2000 м дымка ясно +23.0 +21.8 93 +31 +36 очень
душно
1017.9 1017.5 +20.6 +30.0
06 20.01 С 1 2000 м дымка ясно +23.0 +21.8 93 +31 +48 очень
душно
1017.9 1017.5 +20.6 +30.0
09 20.01 В 1 4000 м мгла 6/3 600 м
[Sc Cs]
+29.4 +19.6 56 +35 +42 очень
душно
1014.6 1014.3
12 20.01 В 2 4000 м мгла 8/0
[Cs]
+26.8 +20.4 68 +33 +33 очень
душно
1013.8 1013.5 +29.8
15 20.01 В 1 4000 м мгла ясно +23.2 +20.8 86 +31 +31 очень
душно
1015.2 1014.8
18 20.01 штиль 0 4000 м мгла ясно +22.2 +21.0 93 +29 +29 очень
душно
1015.2 1014.8
21 20.01 штиль 0 4000 м мгла ясно +21.8 +20.9 95 +28 +28 душно 1014.6 1014.2
00 21.01 штиль 0 4000 м мгла ясно +20.2 +19.9 98 +24 +24 комфорт 1014.2 1013.8
03 21.01 штиль 0 200 м туман ясно +21.0 +20.4 96 +26 +32 душно 1016.7 1016.3 +19.7 +29.8
06 21.01 В 1 4000 м мгла {туман} 6/6 600 м
[Sc]
+27.4 +20.1 64 +34 +40 очень
душно
1016.6 1016.3
09 21.01 В 1 4000 м мгла 5/3 600 м
[Sc Ci fib]
+28.6 +21.1 64 +36 +43 очень
душно
1013.9 1013.6
12 21.01 В 2 4000 м мгла 4/0
[Ci fib]
+25.6 +19.4 69 +31 +31 очень
душно
1013.4 1013.0 +29.6
15 21.01 В 1 4000 м мгла ясно +23.0 +19.9 83 +30 +30 очень
душно
1015.0 1014.6
18 21.01 ЮВ 1 4000 м мгла 4/1 600 м
[Sc Ac trans]
+22.4 +20.2 87 +29 +29 очень
душно
1014.9 1014.5
21 21.01 штиль 0 4000 м мгла 3/1 600 м
[Sc Ci sp]
+20.6 +18.7 89 +24 +24 комфорт 1013.9 1013.5
00 22.01 штиль 0 4000 м мгла 6/3 600 м
[Sc Ac trans Ci sp]
+20.0 +18.4 91 +23 +23 комфорт 1014.0 1013.6
03 22.01 штиль 0 2000 м дымка ясно +21.8 +20.6 93 +28 +34 душно 1016.0 1015.6 +20.0 +29.6
06 22.01 В 2 4000 м мгла 4/3 600 м
[Sc Ac trans]
+29.0 +19.2 55 +34 +44 очень
душно
1016.0 1015.7
09 22.01 В 2 4000 м мгла 3/3 600 м
[Sc]
+28.8 +19.3 56 +34 +41 очень
душно
1013.3 1013.0
12 22.01 ЮВ 2 4000 м мгла 5/3 600 м
[Sc Ac trans Ci fib]
+26.0 +19.2 66 +31 +31 очень
душно
1013.6 1013.2 +30.4
15 22.01 В 2 4000 м мгла 4/3 600 м
[Sc Ci fib]
+24.2 +19.2 74 +29 +29 душно 1015.0 1014.6
18 22.01 В 1 4000 м мгла 3/1 600 м
[Sc Ci fib]
+23.0 +19.2 79 +29 +29 очень
душно
1014.9 1014.5
21 22.01 штиль 0 4000 м мгла 3/1 600 м
[Sc Ci fib]
+22.4 +19.6 84 +28 +28 душно 1014.2 1013.8
00 23.01 СЗ 1 4000 м мгла 4/4 600 м
[Sc]
+21.0 +19.4 91 +27 +27 душно 1014.3 1013.9
03 23.01 В 1 2000 м дымка ясно +23.0 +20.2 84 +30 +35 очень
душно
1015.5 1015.1 +20.5 +30.4
06 23.01 В 2 4000 м мгла ясно +28.4 +20.2 61 +35 +50 очень
душно
1014.9 1014.6
09 23.01 В 1 4000 м мгла ясно +28.8 +19.6 58 +35 +46 очень
душно
1012.6 1012.3
12 23.01 ЮВ 2 4000 м мгла ясно +25.8 +20.3 72 +32 +32 очень
душно
1013.0 1012.6 +29.7
15 23.01 В 1 4000 м мгла ясно +24.0 +21.3 85 +30 +30 очень
душно
1014.6 1014.2
18 23.01 штиль 0 4000 м мгла ясно +23.6 +20.9 85 +30 +30 очень
душно
1015.2 1014.8

 

Местоположение метеостанции Мачилипатнам (Андхра-Прадеш, Индия): широта 16.20 долгота 81.15 высота над уровнем моря 3 м.

В архиве по умолчанию представлена погода в Мачилипатнаме за последнюю неделю. Архивные данные за месяц целиком и за предыдущие месяцы, начиная с января 2011 года, Вы можете получить, выбрав интересующий диапазон дат из раскрывающегося списка и нажав кнопку "Ввод!".


*Определитесь, кто Вы:
робот инопланетянин человек

Внимание! Время в таблицах - всемирное. Для получения местного времени необходимо прибавить поправку, которая равна 5.5 ч.

Смотрите также архив погоды в соседних городах и на ближайших метеорологических станциях:

Погода в Ганнавараме (Андхра-Прадеш, Индия) (52 км)
Погода в Нарсапере (Андхра-Прадеш, Индия) (64 км)
Погода в Бапатле (Андхра-Прадеш, Индия) (80 км)
Погода в Нандигаме (Андхра-Прадеш, Индия) (113 км)
Погода в Онголе (Андхра-Прадеш, Индия) (140 км)
Погода в Какинаде (Андхра-Прадеш, Индия) (142 км)
Погода в Кхаммаме (Телингана, Индия) (158 км)
Погода в Бхадрачаламе (Телингана, Индия) (166 км)
Погода в Рентчайнтале (Андхра-Прадеш, Индия) (175 км)
Погода в Кавали (Андхра-Прадеш, Индия) (191 км)

Пояснения к столбцам:

Ветер - указаны скорость ветра в м/с - средняя за 10 мин, порывы в срок и между сроками (в фигурных скобках) и направление, откуда дует ветер: С - северный, СВ - северо-восточный, В - восточный, ЮВ - юго-восточный, Ю - южный, ЮЗ - юго-западный, З - западный, СЗ - северо-западный.
Видимость - горизонтальная дальность видимости в метрах или километрах. При видимости от 1 до 10 км при отсутствии осадков обычно наблюдается дымка, при ухудшении видимости до 1 км и менее - туман. В сухую погоду видимость может ухудшаться дымом, пылью или мглою.
Явления - указаны атмосферные явления, наблюдавшиеся в срок или в последний час перед сроком; фигурными скобками обозначены явления, наблюдавшиеся между сроками (за 1-3 часа до срока); квадратными скобками обозначены град или гололедные отложения с указанием их диаметра в мм.
Облачность - указаны через наклонную черту общая и нижняя облачность в баллах и высота нижней границы облаков в метрах; квадратными скобками обозначены формы облаков: Ci - перистые, Cs - перисто-слоистые, Cc - перисто-кучевые, Ac - высококучевые, As - высокослоистые, Sc - слоисто-кучевые, Ns - слоисто-дождевые, Cu - кучевые, Cb - кучево-дождевые. Подробнее классификацию облаков см. в Атласе облаков (PDF).
T - Температура воздуха - температура, измеренная на высоте 2 м над землей.
Td - Температура точки росы - температура, при понижении до которой содержащийся в воздухе водяной пар достигнет насыщения.
f - Относительная влажность воздуха - влажноcть воздуха, измеренная на высоте 2 м над землей.
Te - Эффективная температура - температура, которую ощущает одетый по сезону человек в тени. Характеристика душности погоды. При расчете учитывается влияние влажности воздуха и скорости ветра на теплоощущения человека.
Tes - Эффективная температура на солнце - температура, которую ощущает человек, с поправкой на солнечный нагрев. Характеристика знойности погоды. Зависит от высоты солнца над горизонтом, облачности и скорости ветра. Ночью, в пасмурную погоду, а также при ветре 12 м/с и более поправка равна нулю.
P - Атмосферное давление - приведенное к уровню моря атмосферное давление.
Po - Атмосферное давление - измеренное на уровне метеостанции атмосферное давление.
Tmin - Минимальная температура - минимум температуры воздуха на высоте 2 м над землей.
Tmax - Максимальная температура - максимум температуры воздуха на высоте 2 м над землей.
R - Количество осадков - Количество выпавших осадков за период времени, мм. При наведении курсора мыши на число - период времени, за который выпало указанное количество осадков.
R24 - Количество осадков - Количество выпавших осадков за 24 часа, мм.
S - Снежный покров - Высота снежного покрова, см. При наведении курсора мыши на число - состояние снежного покрова и степень покрытия местности в баллах.